Location: Casper
(42.8670°N, 106.3130°W)
Time: 21:09:43
(UTC-06:00)

Daily predictions for brighter satellites

Satellite Brightness Start Highest point End
(mag) Time Altitude Azimuth Time Altitude Azimuth Time Altitude Azimuth
Cosmos 2123 Rocket 4.0 20:01:14 10° N 20:07:24 66° E 20:13:32 10° SSE
Cosmos 2297 Rocket 2.3 20:04:04 10° NNW 20:09:44 68° ENE 20:15:22 10° SSE
Cosmos 2082 3.8 20:05:57 10° NNW 20:11:37 90° ENE 20:17:14 10° SSE
NOSS 7 (H) 4.3 20:13:04 10° SSW 20:16:23 85° ESE 20:19:51 10° NE
SL-24 R/B - RUBIN 2 4.5 20:10:47 10° SSW 20:16:30 60° ESE 20:22:54 10° NE
Meteor 1-5 Rocket 4.3 20:12:47 10° S 20:18:09 85° W 20:23:43 10° N
Cosmos 1346 Rocket 3.1 20:14:43 10° NNW 20:18:42 74° W 20:22:41 10° S
Cosmos 1515 4.5 20:15:26 10° N 20:18:57 33° ENE 20:22:25 10° SE
Meteor 1-12 Rocket 4.4 20:13:33 10° S 20:19:07 55° E 20:24:50 10° NNE
Iridium 4 Rocket 3.9 20:15:24 10° NNE 20:19:59 36° E 20:24:12 10° SSE
Spot 2 Rocket 4.1 20:14:58 10° S 20:20:01 62° WSW 20:25:04 10° NNW
Cosmos 1544 Rocket 4.1 20:16:16 10° SSW 20:20:37 64° W 20:25:02 10° N
Cosmos 1939 Rocket 4.5 20:24:09 10° ESE 20:27:08 20° ENE 20:30:09 10° NNE
Lacrosse 5 2.0 20:23:13 10° NW 20:28:16 64° NE 20:32:58 12° ESE
Cosmos 1934 Rocket 4.3 20:23:53 10° SSW 20:30:01 74° W 20:36:18 10° N
Cosmos 1937 Rocket 4.1 20:25:12 10° N 20:30:11 41° ENE 20:35:08 10° SE
Envisat 4.2 20:26:39 10° ESE 20:30:40 24° ENE 20:34:42 10° NNE
BREEZE-M DEB (TANK) 4.1 20:28:33 10° NW 20:31:33 44° NNE 20:39:44 10° E
Resurs 01 Rocket 2.9 20:27:20 10° S 20:31:34 44° W 20:35:50 10° NNW
BREEZE-M DEB (TANK) 2.8 20:30:54 10° NW 20:32:46 28° NNE 20:35:26 11° E
Cosmos 2298 Rocket 4.1 20:28:43 10° NNW 20:34:02 67° ENE 20:39:20 10° SSE
Cosmos 1743 3.9 20:34:46 10° SE 20:37:56 24° E 20:41:05 10° NE
Cosmos 1153 Rocket 4.5 20:34:04 10° S 20:40:10 66° E 20:46:15 10° NNE
SPOT 5 4.4 20:38:12 13° E 20:40:45 18° ENE 20:43:59 10° NNE
Cosmos 1697 Rocket 2.7 20:39:19 10° S 20:44:52 62° ESE 20:50:26 10° NNE
Cosmos 1066 Rocket 4.3 20:43:10 10° N 20:48:50 63° ENE 20:54:34 10° SSE
RESURS DK-1 2.4 20:47:41 10° NNW 20:51:49 65° ENE 20:54:48 18° SE
ERS-1 Rocket 3.3 20:48:35 13° SE 20:52:47 48° ENE 20:57:37 10° N
CZ-4 DEB 3.2 20:51:47 21° SE 20:53:27 41° ENE 20:56:27 10° N
Cosmos 1802 Rocket 4.4 20:51:23 10° SSE 20:57:24 45° E 21:03:29 10° NNE
SL-16 R/B 3.6 20:57:53 17° E 20:57:53 17° E 21:01:03 10° ENE
USA 186 2.2 20:55:24 10° S 20:58:21 53° W 21:01:07 10° NNW
Cosmos 2150 Rocket 4.0 20:54:10 10° NNW 20:59:20 86° WSW 21:04:23 11° SSE
Cosmos 1825 Rocket 3.9 20:57:16 10° N 21:01:32 46° ENE 21:04:04 22° SE
Cosmos 2016 Rocket 4.3 20:59:04 10° SSE 21:04:46 42° E 21:10:33 10° NNE
OAO 2 Rocket 4.2 21:00:24 10° WSW 21:04:52 33° S 21:07:11 22° SE
Cosmos 1763 Rocket 3.7 21:00:13 10° S 21:05:00 43° ESE 21:09:47 10° NNE
H-2A R/B 3.8 21:01:29 10° S 21:05:14 46° W 21:09:04 10° NNW
ALOS 3.4 21:00:48 10° S 21:05:15 44° W 21:09:45 10° NNW
Cosmos 1980 Rocket 2.2 21:03:20 10° S 21:08:53 59° ESE 21:14:29 10° NNE
Cosmos 1842 4.3 21:08:33 10° NNE 21:11:56 27° ENE 21:12:18 27° E
Cosmos 1898 Rocket 3.9 21:07:04 10° NNW 21:12:18 63° WSW 21:17:25 10° S
Cosmos 1953 Rocket 3.9 21:08:55 10° N 21:13:13 45° ENE 21:15:00 30° SE
H-2A R/B 2.5 21:15:02 31° ESE 21:16:13 39° ENE 21:20:07 10° N
Cosmos 2173 Rocket 4.0 21:10:21 10° S 21:16:40 73° E 21:22:59 10° NNE
Cosmos 2098 Rocket 4.4 21:12:46 16° SSE 21:17:31 40° E 21:22:44 10° NNE
Cosmos 1125 Rocket 4.3 21:13:43 10° N 21:18:26 33° ENE 21:20:07 27° E
Cosmos 2228 4.4 21:20:01 22° ENE 21:20:01 22° ENE 21:22:40 10° NE
Cosmos 1666 3.5 21:20:21 31° ENE 21:20:21 31° ENE 21:23:23 10° NNE
Tiangong 1 1.6 21:19:02 10° W 21:21:59 42° SSW 21:22:11 41° S
BREEZE-M DEB (TANK) 3.9 21:08:35 10° WSW 21:24:21 75° SSE 21:27:44 21° ENE
Cosmos 468 Rocket 4.5 21:19:19 10° SSW 21:24:23 61° WNW 21:29:29 10° NNE
Cosmos 967 Rocket 4.4 21:19:44 10° NNW 21:26:08 83° ENE 21:29:36 29° SE
USA 215 4.5 21:21:34 12° ENE 21:26:40 32° NNE 21:32:19 10° NW
YAOGAN 6 3.6 21:28:05 31° ENE 21:28:05 31° ENE 21:31:16 10° N
YAOGAN 11 4.4 21:25:39 18° S 21:28:58 68° WSW 21:33:24 10° NNW
Cosmos 841 Rocket 3.4 21:24:12 10° S 21:29:22 64° ESE 21:34:32 10° NNE
Cosmos 1758 Rocket 3.5 21:27:21 10° N 21:31:40 60° E 21:32:43 45° SE
Cosmos 2263 Rocket 3.4 21:28:29 10° N 21:33:08 26° NE 21:34:33 23° ENE
Cosmos 2100 Rocket 4.1 21:27:29 10° SSW 21:33:46 78° W 21:40:01 10° N
ASTEX 1 3.5 21:32:13 10° NNE 21:37:08 54° E 21:38:29 41° SE
Cosmos 1340 2.7 21:33:54 10° NNW 21:37:42 75° W 21:38:50 43° S
deb Chang Zheng 4 3.5 21:37:17 10° NNE 21:41:45 67° ESE 21:43:01 44° SSE
Cosmos 2322 Rocket 2.4 21:42:28 42° SE 21:43:06 43° ESE 21:48:23 10° NE
Tsikada Rocket 4.1 21:38:36 10° N 21:44:57 59° E 21:47:16 38° SE
Cosmos 2061 Rocket 4.3 21:41:07 10° SSW 21:47:23 68° W 21:53:37 10° N
Meteor 1-15 Rocket 4.3 21:50:28 37° SSE 21:52:44 64° E 21:58:31 10° NNE
Cosmos 372 Rocket 4.5 21:48:56 10° N 21:53:48 41° ENE 21:54:09 40° ENE
MetOp-A 4.0 21:54:18 48° SSE 21:55:51 81° ENE 22:01:14 10° NNW
Meteor 2-9 Rocket 4.0 21:54:07 36° S 21:56:23 77° E 22:01:47 10° NNE
Cosmos 2360 4.3 21:54:34 10° SSW 22:00:17 77° WNW 22:06:03 10° NNE
Cosmos 2058 Rocket 3.1 21:59:39 55° SSW 22:00:37 84° W 22:05:10 10° N
Cosmos 1939 Rocket 4.2 22:00:05 26° SW 22:01:48 37° W 22:05:43 10° NNW
Cosmos 1606 Rocket 4.4 21:59:40 18° SSW 22:02:44 50° WNW 22:07:05 10° N
Cosmos 405 Rocket 4.1 22:00:21 10° N 22:02:30 28° NNE 22:02:30 28° NNE
Cosmos 1725 Rocket 3.9 22:02:49 33° S 22:05:50 85° E 22:12:08 10° N
Envisat 4.0 22:06:51 25° SSW 22:09:25 43° W 22:14:16 10° NNW
Lacrosse 5 3.5 22:06:52 10° WNW 22:10:51 24° WSW 22:12:11 21° SW
Cosmos 332 Rocket 4.3 22:15:37 48° NE 22:15:37 48° NE 22:19:16 10° NNE
SPOT 5 3.4 22:17:27 47° SW 22:18:28 56° W 22:23:09 10° NNW
CZ-4B R/B 4.1 22:15:45 10° NNE 22:19:01 41° NE 22:19:01 41° NE
Cosmos 2233 Rocket 3.8 22:27:36 70° SSE 22:28:17 79° E 22:34:33 10° N
H-2A R/B 2.5 22:37:07 48° NNE 22:37:07 48° NNE 22:40:56 10° N
Terra 2.9 22:38:09 37° NNE 22:38:09 37° NNE 22:41:21 10° N
ARGOS 3.2 22:39:15 70° WSW 22:39:20 70° WSW 22:44:44 10° NNW
NOAA 11 4.3 22:40:39 67° WSW 22:40:50 68° WSW 22:46:18 10° NNW
SL-16 R/B 2.4 22:39:37 51° SW 22:40:58 70° WNW 22:46:40 10° NNE
Cosmos 1844 Rocket 4.3 22:40:09 10° N 22:44:10 22° NE 22:44:10 22° NE
H-2A R/B 4.3 22:52:10 17° W 22:52:25 17° W 22:55:13 10° NW
Cosmos 2360 Rocket 3.6 22:56:06 28° NE 22:56:06 28° NE 22:58:47 10° NNE
Cosmos 1980 Rocket 4.4 22:48:46 10° WSW 22:53:18 24° NW 22:57:52 10° N
SPOT 1/Viking Rocket 4.3 22:55:41 45° W 22:55:41 45° W 23:00:36 10° NNW
USA 215 3.2 23:08:55 72° NE 23:09:02 72° NE 23:15:34 10° NW
Cosmos 1464 Rocket 4.3 23:17:16 63° NNE 23:17:16 63° NNE 23:22:30 10° N
Cosmos 2263 Rocket 3.0 23:11:57 10° NW 23:16:14 44° WNW 23:16:14 44° WNW
Cosmos 2322 Rocket 3.8 23:24:08 18° WSW 23:27:16 30° NW 23:32:12 10° N
